Find Kosmos-2022

NORAD ID: 20024 Int'l Des: 1989-039 Owner: UNKS Country: SU Constellation: GLONASS operational
MEOCIRCULAR

当前视图

正在加载3D地球...

About Kosmos-2022

Kosmos-2022 (NORAD 20024) is a GLONASS constellation satellite launched May 31, 1989 by UNKS of SU. It operates in MEO, CIRCULAR orbit with a mass of 1300.00 kg.

关于 Kosmos-2022

正在加载描述...

即将过境

Passes for default location (London). Set your location on the main map for personalized predictions.

高度历史

Loading altitude history...

两行轨道根数

1 20024U 89039A 26190.47705160 -.00000056 00000-0 00000-0 0 9997
2 20024 64.9196 310.1148 0009521 208.4301 156.1295 2.13102170288811
Epoch: Jul 9, 2026 • Age: 129 hours

当前状态

高度 19112.2 km
远地点 / 近地点 N/A
速度 3.96 km/s
星下点 13.70°N, 114.58°W
发射日期 May 31, 1989
运行时间 37.1 years
类型 other

技术详情

分类 Payload
质量 1300.00 kg
干质量 1200.00 kg
总质量 1300.00 kg
长度 4.00 m
直径 1.50 m
跨度 7.80 m
形状 Cyl + Ant + 2 Pan
制造商 OAZ
平台类型 Uragan
阶段状态 In Orbit
所有者/国家 UNKS/SU

Most Searched